Regional Weather Roundup
Issued by NWS

Home | Current Version | Previous Version | Text Only | Print | Product List | Glossary On
Versions: 1 2 3 4 5 6 7 8 9 10 11 12 13 14 15 16 17 18 19 20 21 22 23 24 25 26 27 28 29 30 31 32 33 34 35 36 37 38 39 40 41 42 43 44 45 46 47 48 49 50
000
ASUS42 KFFC 291910
RWRGA
WEATHER ROUNDUP FOR GEORGIA
NATIONAL WEATHER SERVICE PEACHTREE CITY GA
300 PM EDT THU SEP 29 2016

NOTE: "FAIR" INDICATES FEW OR NO CLOUDS BELOW 12,000 FEET WITH NO
SIGNIFICANT WEATHER AND/OR OBSTRUCTIONS TO VISIBILITY.

* = USE WITH CAUTION. THE STATIONS MARKED WITH AN ASTERISK MAY NOT
REPORT WEATHER SUCH AS PRECIPITATION, FOG, OR THUNDER AND ARE NOT
QUALITY CONTROLLED BY NWS.

THE REMARK "TC" DENOTES TEMPERATURE READING IN DEGREES CELSIUS.

GAZ001>058-292000-
NORTH GEORGIA

CITY           SKY/WX    TMP DP  RH WIND       PRES   REMARKS
ATLANTA        MOSUNNY   76  50  40 NW7G20    30.00F
ATHENS         MOSUNNY   82  54  37 W9G17     29.95F
CHAMBLEE       SUNNY     75  47  36 W9G20     30.00F
PEACHTREE CITY SUNNY     78  51  38 NW13G20   30.00F
ROME           SUNNY     76  41  28 VRB5      30.00F
WEST ATLANTA   SUNNY     76  45  33 W10       30.00F
GAINESVILLE    SUNNY     75  46  35 SW13      30.00F
CARTERSVILLE   SUNNY     75  44  33 CALM      30.01F


CITY           SKY/WX    TMP DP  RH WIND       PRES   REMARKS
DALTON*        PTSUNNY   72  46  40 N6        30.02F
LAWRENCEVILLE* SUNNY     75  48  38 W12G20    29.99F
MARIETTA       MOSUNNY   74  47  37 W8        30.01F
KENNESAW*      MOSUNNY   73  45  35 W8        29.99F
CANTON*        SUNNY     73  34  23 W10G18    30.03S
BLAIRSVILLE*     N/A    N/A N/A N/A MISG      30.02S
$$

GAZ059>098-102>109-292000-
CENTRAL GEORGIA

CITY           SKY/WX    TMP DP  RH WIND       PRES   REMARKS
AUGUSTA-BUSH   SUNNY     89  50  26 SW10G18   29.91F
AUGUSTA-DANIEL SUNNY     90  45  21 SW8G20    29.93F
COLUMBUS       MOSUNNY   85  51  31 NW15G23   29.96F
MACON          SUNNY     91  53  27 W9        29.93F
ROBINS AFB     SUNNY     89  54  30 W3        29.92F


CITY           SKY/WX    TMP DP  RH WIND       PRES   REMARKS
LAGRANGE*      SUNNY     82  56  40 W8G17     30.00F
MILLEDGEVILLE* SUNNY     86  59  39 W7        29.93F
$$

GAZ099>101-110>166-292000-
SOUTH GEORGIA

CITY           SKY/WX    TMP DP  RH WIND       PRES   REMARKS
SAVANNAH       MOSUNNY   90  59  35 SW7       29.94F
VALDOSTA       SUNNY     91  70  49 VRB3      29.95F HX  96
ALMA           MOSUNNY   89  68  49 MISG      29.94F HX  93
ST SIMONS      CLOUDY    82  74  76 SE12      29.96R THUNDER
FT STEWART     MOSUNNY   89  67  48 VRB3      29.92F HX  91
ALBANY         MOSUNNY   90  56  31 VRB5      29.96F
HUNTER AFB     MOSUNNY   90  74  59 SW8       29.92F HX  99
MOODY AFB      MOSUNNY   90  66  44 SW12      29.94F HX  93
BRUNSWICK      CLOUDY    86  72  62 S3        29.96F HX  92


CITY           SKY/WX    TMP DP  RH WIND       PRES   REMARKS
BAINBRIDGE*    SUNNY     90  63  40 W8        29.97F HX  90
MOULTRIE*      SUNNY     88  61  40 W8        29.97F
VIDALIA*       PTSUNNY   88  68  51 SW9       29.94F HX  91
WAYCROSS*      PTSUNNY   92  73  54 SW6       29.94F HX 101
DOUGLAS*       PTSUNNY   88  63  42 W9G17     29.96F
$$



USA.gov is the U.S. government's official web portal to all federal, state and local government web resources and services.